Tracking 30166 objects as of 22-Jan-2025
HD Live streaming from Space Station
objects crossing your sky now

GLOBALSTAR DEB

Track GLOBALSTAR DEB now!
10-day predictions


NORAD ID: 27772
Int'l Code: 1999-031F
Perigee: 1,001.2 km
Apogee: 1,091.4 km
Inclination: 52.0 °
Period: 106.0 minutes
Semi major axis: 7417 km
RCS: 0.0157 m2 (small)
Launch date: June 10, 1999
Source: Globalstar (GLOB)
Launch site: AIR FORCE EASTERN TEST RANGE (AFETR)

Note: This is SATELLITE DEBRIS
Your satellite tracking list
Your tracking list is empty




NASA's NSSDC Master Catalog

Two Line Element Set (TLE):
1 27772U 99031F   25020.76195650  .00021072  00000-0  28346-1 0  9991
2 27772  52.0192 229.6151 0060789 317.0197 126.3786 13.59041284 76755
Source of the keplerian elements: AFSPC